Year,Month,Day,Hour,Minute,Value (Times are PST for temperature in C)
2018,10,17,00,00,6.10
2018,10,17,00,01,6.10
2018,10,17,00,02,6.00
2018,10,17,00,03,6.00
2018,10,17,00,04,6.00
2018,10,17,00,05,6.00
2018,10,17,00,06,6.00
2018,10,17,00,07,6.00
2018,10,17,00,08,6.00
2018,10,17,00,09,6.10
2018,10,17,00,10,6.10
2018,10,17,00,11,6.20
2018,10,17,00,12,6.20
2018,10,17,00,13,6.20
2018,10,17,00,14,6.20
2018,10,17,00,15,6.30
2018,10,17,00,16,6.30
2018,10,17,00,17,6.30
2018,10,17,00,18,6.20
2018,10,17,00,19,6.30
2018,10,17,00,20,6.20
2018,10,17,00,21,6.20
2018,10,17,00,22,6.20
2018,10,17,00,23,6.20
2018,10,17,00,24,6.20
2018,10,17,00,25,6.20
2018,10,17,00,26,6.20
2018,10,17,00,27,6.10
2018,10,17,00,28,6.10
2018,10,17,00,29,6.10
2018,10,17,00,30,6.10
2018,10,17,00,31,6.10
2018,10,17,00,32,6.10
2018,10,17,00,33,6.20
2018,10,17,00,34,6.20
2018,10,17,00,35,6.20
2018,10,17,00,36,6.20
2018,10,17,00,37,6.20
2018,10,17,00,38,6.10
2018,10,17,00,39,6.10
2018,10,17,00,40,6.10
2018,10,17,00,41,6.00
2018,10,17,00,42,6.00
2018,10,17,00,43,5.90
2018,10,17,00,44,5.80
2018,10,17,00,45,5.80
2018,10,17,00,46,5.80
2018,10,17,00,47,5.70
2018,10,17,00,48,5.70
2018,10,17,00,49,5.70
2018,10,17,00,50,5.70
2018,10,17,00,51,5.80
2018,10,17,00,52,5.80
2018,10,17,00,53,5.80
2018,10,17,00,54,5.80
2018,10,17,00,55,5.80
2018,10,17,00,56,5.80
2018,10,17,00,57,5.80
2018,10,17,00,58,5.80
2018,10,17,00,59,5.80
2018,10,17,01,00,5.80
2018,10,17,01,01,5.80
2018,10,17,01,02,5.70
2018,10,17,01,03,5.70
2018,10,17,01,04,5.70
2018,10,17,01,05,5.60
2018,10,17,01,06,5.60
2018,10,17,01,07,5.50
2018,10,17,01,08,5.50
2018,10,17,01,09,5.40
2018,10,17,01,10,5.40
2018,10,17,01,11,5.40
2018,10,17,01,12,5.40
2018,10,17,01,13,5.40
2018,10,17,01,14,5.30
2018,10,17,01,15,5.30
2018,10,17,01,16,5.30
2018,10,17,01,17,5.40
2018,10,17,01,18,5.40
2018,10,17,01,19,5.40
2018,10,17,01,20,5.40
2018,10,17,01,21,5.30
2018,10,17,01,22,5.30
2018,10,17,01,23,5.20
2018,10,17,01,24,5.20
2018,10,17,01,25,5.20
2018,10,17,01,26,5.10
2018,10,17,01,27,5.10
2018,10,17,01,28,5.10
2018,10,17,01,29,5.10
2018,10,17,01,30,5.10
2018,10,17,01,31,5.20
2018,10,17,01,32,5.20
2018,10,17,01,33,5.20
2018,10,17,01,34,5.20
2018,10,17,01,35,5.30
2018,10,17,01,36,5.30
2018,10,17,01,37,5.30
2018,10,17,01,38,5.30
2018,10,17,01,39,5.30
2018,10,17,01,40,5.30
2018,10,17,01,41,5.20
2018,10,17,01,42,5.20
2018,10,17,01,43,5.20
2018,10,17,01,44,5.10
2018,10,17,01,45,5.10
2018,10,17,01,46,5.10
2018,10,17,01,47,5.10
2018,10,17,01,48,5.10
2018,10,17,01,49,5.00
2018,10,17,01,50,5.00
2018,10,17,01,51,4.90
2018,10,17,01,52,5.00
2018,10,17,01,53,5.00
2018,10,17,01,54,5.00
2018,10,17,01,55,5.00
2018,10,17,01,56,5.00
2018,10,17,01,57,5.00
2018,10,17,01,58,5.00
2018,10,17,01,59,4.90
2018,10,17,02,00,4.90
2018,10,17,02,01,4.90
2018,10,17,02,02,4.90
2018,10,17,02,03,4.90
2018,10,17,02,04,4.90
2018,10,17,02,05,4.90
2018,10,17,02,06,4.80
2018,10,17,02,07,4.80
2018,10,17,02,08,4.80
2018,10,17,02,09,4.80
2018,10,17,02,10,4.80
2018,10,17,02,11,4.80
2018,10,17,02,12,4.80
2018,10,17,02,13,4.80
2018,10,17,02,14,4.80
2018,10,17,02,15,4.80
2018,10,17,02,16,4.80
2018,10,17,02,17,4.70
2018,10,17,02,18,4.70
2018,10,17,02,19,4.70
2018,10,17,02,20,4.70
2018,10,17,02,21,4.70
2018,10,17,02,22,4.70
2018,10,17,02,23,4.70
2018,10,17,02,24,4.70
2018,10,17,02,25,4.60
2018,10,17,02,26,4.60
2018,10,17,02,27,4.60
2018,10,17,02,28,4.50
2018,10,17,02,29,4.50
2018,10,17,02,30,4.40
2018,10,17,02,31,4.40
2018,10,17,02,32,4.40
2018,10,17,02,33,4.40
2018,10,17,02,34,4.40
2018,10,17,02,35,4.40
2018,10,17,02,36,4.40
2018,10,17,02,37,4.40
2018,10,17,02,38,4.40
2018,10,17,02,39,4.40
2018,10,17,02,40,4.40
2018,10,17,02,41,4.40
2018,10,17,02,42,4.40
2018,10,17,02,43,4.30
2018,10,17,02,44,4.30
2018,10,17,02,45,4.40
2018,10,17,02,46,4.40
2018,10,17,02,47,4.40
2018,10,17,02,48,4.50
2018,10,17,02,49,4.50
2018,10,17,02,50,4.60
2018,10,17,02,51,4.60
2018,10,17,02,52,4.60
2018,10,17,02,53,4.60
2018,10,17,02,54,4.60
2018,10,17,02,55,4.60
2018,10,17,02,56,4.60
2018,10,17,02,57,4.50
2018,10,17,02,58,4.50
2018,10,17,02,59,4.50
2018,10,17,03,00,4.50
2018,10,17,03,01,4.40
2018,10,17,03,02,4.40
2018,10,17,03,03,4.40
2018,10,17,03,04,4.40
2018,10,17,03,05,4.40
2018,10,17,03,06,4.30
2018,10,17,03,07,4.30
2018,10,17,03,08,4.30
2018,10,17,03,09,4.30
2018,10,17,03,10,4.30
2018,10,17,03,11,4.30
2018,10,17,03,12,4.30
2018,10,17,03,13,4.20
2018,10,17,03,14,4.20
2018,10,17,03,15,4.20
2018,10,17,03,16,4.20
2018,10,17,03,17,4.20
2018,10,17,03,18,4.10
2018,10,17,03,19,4.10
2018,10,17,03,20,4.10
2018,10,17,03,21,4.10
2018,10,17,03,22,4.10
2018,10,17,03,23,4.10
2018,10,17,03,24,4.10
2018,10,17,03,25,4.10
2018,10,17,03,26,4.10
2018,10,17,03,27,4.10
2018,10,17,03,28,4.10
2018,10,17,03,29,4.10
2018,10,17,03,30,4.10
2018,10,17,03,31,4.10
2018,10,17,03,32,4.00
2018,10,17,03,33,4.00
2018,10,17,03,34,4.00
2018,10,17,03,35,4.00
2018,10,17,03,36,4.00
2018,10,17,03,37,4.10
2018,10,17,03,38,4.10
2018,10,17,03,39,4.10
2018,10,17,03,40,4.20
2018,10,17,03,41,4.20
2018,10,17,03,42,4.30
2018,10,17,03,43,4.30
2018,10,17,03,44,4.30
2018,10,17,03,45,4.40
2018,10,17,03,46,4.40
2018,10,17,03,47,4.40
2018,10,17,03,48,4.40
2018,10,17,03,49,4.50
2018,10,17,03,50,4.50
2018,10,17,03,51,4.50
2018,10,17,03,52,4.50
2018,10,17,03,53,4.50
2018,10,17,03,54,4.50
2018,10,17,03,55,4.40
2018,10,17,03,56,4.40
2018,10,17,03,57,4.40
2018,10,17,03,58,4.40
2018,10,17,03,59,4.40
2018,10,17,04,00,4.40
2018,10,17,04,01,4.40
2018,10,17,04,02,4.40
2018,10,17,04,03,4.50
2018,10,17,04,04,4.50
2018,10,17,04,05,4.50
2018,10,17,04,06,4.50
2018,10,17,04,07,4.40
2018,10,17,04,08,4.40
2018,10,17,04,09,4.30
2018,10,17,04,10,4.30
2018,10,17,04,11,4.20
2018,10,17,04,12,4.20
2018,10,17,04,13,4.20
2018,10,17,04,14,4.20
2018,10,17,04,15,4.20
2018,10,17,04,16,4.20
2018,10,17,04,17,4.10
2018,10,17,04,18,4.20
2018,10,17,04,19,4.20
2018,10,17,04,20,4.20
2018,10,17,04,21,4.10
2018,10,17,04,22,4.10
2018,10,17,04,23,4.10
2018,10,17,04,24,4.00
2018,10,17,04,25,4.00
2018,10,17,04,26,3.90
2018,10,17,04,27,3.90
2018,10,17,04,28,3.90
2018,10,17,04,29,3.90
2018,10,17,04,30,3.90
2018,10,17,04,31,3.90
2018,10,17,04,32,4.00
2018,10,17,04,33,3.90
2018,10,17,04,34,3.90
2018,10,17,04,35,3.90
2018,10,17,04,36,3.90
2018,10,17,04,37,3.90
2018,10,17,04,38,3.90
2018,10,17,04,39,3.90
2018,10,17,04,40,3.90
2018,10,17,04,41,3.90
2018,10,17,04,42,3.90
2018,10,17,04,43,3.90
2018,10,17,04,44,3.90
2018,10,17,04,45,3.90
2018,10,17,04,46,4.00
2018,10,17,04,47,4.00
2018,10,17,04,48,3.90
2018,10,17,04,49,3.90
2018,10,17,04,50,3.90
2018,10,17,04,51,3.90
2018,10,17,04,52,3.90
2018,10,17,04,53,3.90
2018,10,17,04,54,3.90
2018,10,17,04,55,3.90
2018,10,17,04,56,3.90
2018,10,17,04,57,3.90
2018,10,17,04,58,4.00
2018,10,17,04,59,3.90
2018,10,17,05,00,4.00
2018,10,17,05,01,3.90
2018,10,17,05,02,3.90
2018,10,17,05,03,3.90
2018,10,17,05,04,3.90
2018,10,17,05,05,3.90
2018,10,17,05,06,3.90
2018,10,17,05,07,3.80
2018,10,17,05,08,3.80
2018,10,17,05,09,3.90
2018,10,17,05,10,3.90
2018,10,17,05,11,3.90
2018,10,17,05,12,3.90
2018,10,17,05,13,3.90
2018,10,17,05,14,3.90
2018,10,17,05,15,3.90
2018,10,17,05,16,3.90
2018,10,17,05,17,3.80
2018,10,17,05,18,3.80
2018,10,17,05,19,3.80
2018,10,17,05,20,3.90
2018,10,17,05,21,3.80
2018,10,17,05,22,3.80
2018,10,17,05,23,3.80
2018,10,17,05,24,3.80
2018,10,17,05,25,3.80
2018,10,17,05,26,3.80
2018,10,17,05,27,3.80
2018,10,17,05,28,3.90
2018,10,17,05,29,3.90
2018,10,17,05,30,3.90
2018,10,17,05,31,3.90
2018,10,17,05,32,3.90
2018,10,17,05,33,3.90
2018,10,17,05,34,3.80
2018,10,17,05,35,3.80
2018,10,17,05,36,3.80
2018,10,17,05,37,3.80
2018,10,17,05,38,3.80
2018,10,17,05,39,3.80
2018,10,17,05,40,3.80
2018,10,17,05,41,3.80
2018,10,17,05,42,3.80
2018,10,17,05,43,3.80
2018,10,17,05,44,3.80
2018,10,17,05,45,3.80
2018,10,17,05,46,3.80
2018,10,17,05,47,3.80
2018,10,17,05,48,3.80
2018,10,17,05,49,3.80
2018,10,17,05,50,3.80
2018,10,17,05,51,3.70
2018,10,17,05,52,3.80
2018,10,17,05,53,3.80
2018,10,17,05,54,3.80
2018,10,17,05,55,3.80
2018,10,17,05,56,3.80
2018,10,17,05,57,3.80
2018,10,17,05,58,3.80
2018,10,17,05,59,3.90
2018,10,17,06,00,3.90
2018,10,17,06,01,3.90
2018,10,17,06,02,3.90
2018,10,17,06,03,3.90
2018,10,17,06,04,3.90
2018,10,17,06,05,3.90
2018,10,17,06,06,4.00
2018,10,17,06,07,4.00
2018,10,17,06,08,4.10
2018,10,17,06,09,4.10
2018,10,17,06,10,4.20
2018,10,17,06,11,4.20
2018,10,17,06,12,4.20
2018,10,17,06,13,4.20
2018,10,17,06,14,4.20
2018,10,17,06,15,4.20
2018,10,17,06,16,4.20
2018,10,17,06,17,4.20
2018,10,17,06,18,4.20
2018,10,17,06,19,4.20
2018,10,17,06,20,4.20
2018,10,17,06,21,4.30
2018,10,17,06,22,4.30
2018,10,17,06,23,4.30
2018,10,17,06,24,4.30
2018,10,17,06,25,4.30
2018,10,17,06,26,4.30
2018,10,17,06,27,4.20
2018,10,17,06,28,4.20
2018,10,17,06,29,4.20
2018,10,17,06,30,4.20
2018,10,17,06,31,4.10
2018,10,17,06,32,4.10
2018,10,17,06,33,4.10
2018,10,17,06,34,4.10
2018,10,17,06,35,4.10
2018,10,17,06,36,4.10
2018,10,17,06,37,4.10
2018,10,17,06,38,4.10
2018,10,17,06,39,4.00
2018,10,17,06,40,4.00
2018,10,17,06,41,4.00
2018,10,17,06,42,4.00
2018,10,17,06,43,4.00
2018,10,17,06,44,4.00
2018,10,17,06,45,4.00
2018,10,17,06,46,4.00
2018,10,17,06,47,3.90
2018,10,17,06,48,3.90
2018,10,17,06,49,3.90
2018,10,17,06,50,3.90
2018,10,17,06,51,3.90
2018,10,17,06,52,3.90
2018,10,17,06,53,3.90
2018,10,17,06,54,3.90
2018,10,17,06,55,3.90
2018,10,17,06,56,3.90
2018,10,17,06,57,4.00
2018,10,17,06,58,4.00
2018,10,17,06,59,4.00
2018,10,17,07,00,4.00
2018,10,17,07,01,4.00
2018,10,17,07,02,4.00
2018,10,17,07,03,4.00
2018,10,17,07,04,4.00
2018,10,17,07,05,3.90
2018,10,17,07,06,3.90
2018,10,17,07,07,3.90
2018,10,17,07,08,3.90
2018,10,17,07,09,3.90
2018,10,17,07,10,3.90
2018,10,17,07,11,3.90
2018,10,17,07,12,3.90
2018,10,17,07,13,3.90
2018,10,17,07,14,3.90
2018,10,17,07,15,3.90
2018,10,17,07,16,3.90
2018,10,17,07,17,3.90
2018,10,17,07,18,3.90
2018,10,17,07,19,3.90
2018,10,17,07,20,3.90
2018,10,17,07,21,3.90
2018,10,17,07,22,3.90
2018,10,17,07,23,3.90
2018,10,17,07,24,3.90
2018,10,17,07,25,3.90
2018,10,17,07,26,3.90
2018,10,17,07,27,3.90
2018,10,17,07,28,3.90
2018,10,17,07,29,3.80
2018,10,17,07,30,3.80
2018,10,17,07,31,3.80
2018,10,17,07,32,3.80
2018,10,17,07,33,3.80
2018,10,17,07,34,3.80
2018,10,17,07,35,3.80
2018,10,17,07,36,3.80
2018,10,17,07,37,3.80
2018,10,17,07,38,3.80
2018,10,17,07,39,3.80
2018,10,17,07,40,3.80
2018,10,17,07,41,3.80
2018,10,17,07,42,3.80
2018,10,17,07,43,3.90
2018,10,17,07,44,3.90
2018,10,17,07,45,3.90
2018,10,17,07,46,3.90
2018,10,17,07,47,3.90
2018,10,17,07,48,3.90
2018,10,17,07,49,3.90
2018,10,17,07,50,3.80
2018,10,17,07,51,3.80
2018,10,17,07,52,3.80
2018,10,17,07,53,3.80
2018,10,17,07,54,3.80
2018,10,17,07,55,3.80
2018,10,17,07,56,3.80
2018,10,17,07,57,3.80
2018,10,17,07,58,3.80
2018,10,17,07,59,3.80
2018,10,17,08,00,3.80
2018,10,17,08,01,3.80
2018,10,17,08,02,3.80
2018,10,17,08,03,3.80
2018,10,17,08,04,3.80
2018,10,17,08,05,3.80
2018,10,17,08,06,3.80
2018,10,17,08,07,3.80
2018,10,17,08,08,3.80
2018,10,17,08,09,3.80
2018,10,17,08,10,3.80
2018,10,17,08,11,3.70
2018,10,17,08,12,3.70
2018,10,17,08,13,3.70
2018,10,17,08,14,3.70
2018,10,17,08,15,3.80
2018,10,17,08,16,3.80
2018,10,17,08,17,3.80
2018,10,17,08,18,3.90
2018,10,17,08,19,3.90
2018,10,17,08,20,4.00
2018,10,17,08,21,4.10
2018,10,17,08,22,4.20
2018,10,17,08,23,4.30
2018,10,17,08,24,4.30
2018,10,17,08,25,4.30
2018,10,17,08,26,4.40
2018,10,17,08,27,4.50
2018,10,17,08,28,4.50
2018,10,17,08,29,4.60
2018,10,17,08,30,4.70
2018,10,17,08,31,4.70
2018,10,17,08,32,4.70
2018,10,17,08,33,4.80
2018,10,17,08,34,4.80
2018,10,17,08,35,4.90
2018,10,17,08,36,4.90
2018,10,17,08,37,4.90
2018,10,17,08,38,5.00
2018,10,17,08,39,5.00
2018,10,17,08,40,5.00
2018,10,17,08,41,5.10
2018,10,17,08,42,5.10
2018,10,17,08,43,5.20
2018,10,17,08,44,5.20
2018,10,17,08,45,5.30
2018,10,17,08,46,5.30
2018,10,17,08,47,5.40
2018,10,17,08,48,5.50
2018,10,17,08,49,5.60
2018,10,17,08,50,5.60
2018,10,17,08,51,5.70
2018,10,17,08,52,5.70
2018,10,17,08,53,5.80
2018,10,17,08,54,5.90
2018,10,17,08,55,6.00
2018,10,17,08,56,6.10
2018,10,17,08,57,6.20
2018,10,17,08,58,6.20
2018,10,17,08,59,6.30
2018,10,17,09,00,6.40
2018,10,17,09,01,6.50
2018,10,17,09,02,6.60
2018,10,17,09,03,6.70
2018,10,17,09,04,6.80
2018,10,17,09,05,6.80
2018,10,17,09,06,6.90
2018,10,17,09,07,7.00
2018,10,17,09,08,7.10
2018,10,17,09,09,7.20
2018,10,17,09,10,7.20
2018,10,17,09,11,7.30
2018,10,17,09,12,7.40
2018,10,17,09,13,7.50
2018,10,17,09,14,7.50
2018,10,17,09,15,7.60
2018,10,17,09,16,7.70
2018,10,17,09,17,7.70
2018,10,17,09,18,7.70
2018,10,17,09,19,7.80
2018,10,17,09,20,7.80
2018,10,17,09,21,7.80
2018,10,17,09,22,7.80
2018,10,17,09,23,7.80
2018,10,17,09,24,7.90
2018,10,17,09,25,7.90
2018,10,17,09,26,7.90
2018,10,17,09,27,7.90
2018,10,17,09,28,7.90
2018,10,17,09,29,7.90
2018,10,17,09,30,7.90
2018,10,17,09,31,7.90
2018,10,17,09,32,7.90
2018,10,17,09,33,7.90
2018,10,17,09,34,7.90
2018,10,17,09,35,7.90
2018,10,17,09,36,7.90
2018,10,17,09,37,7.90
2018,10,17,09,38,7.90
2018,10,17,09,39,7.90
2018,10,17,09,40,7.90
2018,10,17,09,41,7.90
2018,10,17,09,42,7.90
2018,10,17,09,43,7.90
2018,10,17,09,44,7.90
2018,10,17,09,45,7.90
2018,10,17,09,46,7.90
2018,10,17,09,47,7.90
2018,10,17,09,48,7.90
2018,10,17,09,49,7.80
2018,10,17,09,50,7.80
2018,10,17,09,51,7.80
2018,10,17,09,52,7.80
2018,10,17,09,53,7.90
2018,10,17,09,54,7.90
2018,10,17,09,55,7.90
2018,10,17,09,56,7.90
2018,10,17,09,57,7.90
2018,10,17,09,58,8.00
2018,10,17,09,59,8.00
2018,10,17,10,00,8.10
2018,10,17,10,01,8.20
2018,10,17,10,02,8.20
2018,10,17,10,03,8.30
2018,10,17,10,04,8.40
2018,10,17,10,05,8.40
2018,10,17,10,06,8.50
2018,10,17,10,07,8.50
2018,10,17,10,08,8.60
2018,10,17,10,09,8.60
2018,10,17,10,10,8.60
2018,10,17,10,11,8.70
2018,10,17,10,12,8.70
2018,10,17,10,13,8.70
2018,10,17,10,14,8.70
2018,10,17,10,15,8.80
2018,10,17,10,16,8.90
2018,10,17,10,17,9.00
2018,10,17,10,18,9.10
2018,10,17,10,19,9.20
2018,10,17,10,20,9.30
2018,10,17,10,21,9.40
2018,10,17,10,22,9.50
2018,10,17,10,23,9.60
2018,10,17,10,24,9.70
2018,10,17,10,25,9.70
2018,10,17,10,26,9.70
2018,10,17,10,27,9.80
2018,10,17,10,28,9.80
2018,10,17,10,29,9.80
2018,10,17,10,30,9.80
2018,10,17,10,31,9.80
2018,10,17,10,32,9.70
2018,10,17,10,33,9.70
2018,10,17,10,34,9.70
2018,10,17,10,35,9.70
2018,10,17,10,36,9.60
2018,10,17,10,37,9.60
2018,10,17,10,38,9.60
2018,10,17,10,39,9.70
2018,10,17,10,40,9.70
2018,10,17,10,41,9.70
2018,10,17,10,42,9.70
2018,10,17,10,43,9.80
2018,10,17,10,44,9.80
2018,10,17,10,45,9.90
2018,10,17,10,46,10.00
2018,10,17,10,47,10.10
2018,10,17,10,48,10.20
2018,10,17,10,49,10.20
2018,10,17,10,50,10.30
2018,10,17,10,51,10.40
2018,10,17,10,52,10.50
2018,10,17,10,53,10.50
2018,10,17,10,54,10.60
2018,10,17,10,55,10.60
2018,10,17,10,56,10.70
2018,10,17,10,57,10.70
2018,10,17,10,58,10.80
2018,10,17,10,59,10.80
2018,10,17,11,00,10.80
2018,10,17,11,01,10.80
2018,10,17,11,02,10.90
2018,10,17,11,03,10.90
2018,10,17,11,04,10.90
2018,10,17,11,05,10.90
2018,10,17,11,06,10.90
2018,10,17,11,07,10.90
2018,10,17,11,08,10.90
2018,10,17,11,09,10.90
2018,10,17,11,10,10.90
2018,10,17,11,11,10.90
2018,10,17,11,12,10.90
2018,10,17,11,13,10.90
2018,10,17,11,14,10.90
2018,10,17,11,15,10.90
2018,10,17,11,16,11.00
2018,10,17,11,17,11.00
2018,10,17,11,18,11.10
2018,10,17,11,19,11.10
2018,10,17,11,20,11.10
2018,10,17,11,21,11.20
2018,10,17,11,22,11.20
2018,10,17,11,23,11.30
2018,10,17,11,24,11.30
2018,10,17,11,25,11.60
2018,10,17,11,26,11.70
2018,10,17,11,27,11.90
2018,10,17,11,28,12.10
2018,10,17,11,29,12.20
2018,10,17,11,30,12.40
2018,10,17,11,31,12.50
2018,10,17,11,32,12.70
2018,10,17,11,33,12.80
2018,10,17,11,34,13.00
2018,10,17,11,35,13.10
2018,10,17,11,36,13.20
2018,10,17,11,37,13.30
2018,10,17,11,38,13.40
2018,10,17,11,39,13.40
2018,10,17,11,40,13.40
2018,10,17,11,41,13.30
2018,10,17,11,42,13.30
2018,10,17,11,43,13.30
2018,10,17,11,44,13.30
2018,10,17,11,45,13.30
2018,10,17,11,46,13.30
2018,10,17,11,47,13.30
2018,10,17,11,48,13.30
2018,10,17,11,49,13.30
2018,10,17,11,50,13.30
2018,10,17,11,51,13.30
2018,10,17,11,52,13.30
2018,10,17,11,53,13.40
2018,10,17,11,54,13.40
2018,10,17,11,55,13.40
2018,10,17,11,56,13.40
2018,10,17,11,57,13.40
2018,10,17,11,58,13.40
2018,10,17,11,59,13.40
2018,10,17,12,00,13.40
2018,10,17,12,01,13.50
2018,10,17,12,02,13.50
2018,10,17,12,03,13.50
2018,10,17,12,04,13.60
2018,10,17,12,05,13.60
2018,10,17,12,06,13.70
2018,10,17,12,07,13.80
2018,10,17,12,08,13.90
2018,10,17,12,09,14.00
2018,10,17,12,10,14.20
2018,10,17,12,11,14.40
2018,10,17,12,12,14.50
2018,10,17,12,13,14.70
2018,10,17,12,14,14.80
2018,10,17,12,15,14.80
2018,10,17,12,16,14.90
2018,10,17,12,17,14.90
2018,10,17,12,18,14.90
2018,10,17,12,19,14.90
2018,10,17,12,20,14.90
2018,10,17,12,21,14.90
2018,10,17,12,22,14.90
2018,10,17,12,23,14.90
2018,10,17,12,24,14.90
2018,10,17,12,25,14.90
2018,10,17,12,26,14.90
2018,10,17,12,27,14.90
2018,10,17,12,28,14.90
2018,10,17,12,29,14.90
2018,10,17,12,30,14.90
2018,10,17,12,31,14.90
2018,10,17,12,32,14.90
2018,10,17,12,33,14.90
2018,10,17,12,34,15.00
2018,10,17,12,35,15.10
2018,10,17,12,36,15.10
2018,10,17,12,37,15.20
2018,10,17,12,38,15.20
2018,10,17,12,39,15.20
2018,10,17,12,40,15.20
2018,10,17,12,41,15.20
2018,10,17,12,42,15.20
2018,10,17,12,43,15.20
2018,10,17,12,44,15.20
2018,10,17,12,45,15.20
2018,10,17,12,46,15.20
2018,10,17,12,47,15.20
2018,10,17,12,48,15.20
2018,10,17,12,49,15.20
2018,10,17,12,50,15.30
2018,10,17,12,51,15.30
2018,10,17,12,52,15.30
2018,10,17,12,53,15.30
2018,10,17,12,54,15.30
2018,10,17,12,55,15.30
2018,10,17,12,56,15.30
2018,10,17,12,57,15.30
2018,10,17,12,58,15.30
2018,10,17,12,59,15.30
2018,10,17,13,00,15.30
2018,10,17,13,01,15.30
2018,10,17,13,02,15.40
2018,10,17,13,03,15.40
2018,10,17,13,04,15.40
2018,10,17,13,05,15.40
2018,10,17,13,06,15.50
2018,10,17,13,07,15.60
2018,10,17,13,08,15.60
2018,10,17,13,09,15.70
2018,10,17,13,10,15.70
2018,10,17,13,11,15.70
2018,10,17,13,12,15.60
2018,10,17,13,13,15.60
2018,10,17,13,14,15.60
2018,10,17,13,15,15.70
2018,10,17,13,16,15.70
2018,10,17,13,17,15.70
2018,10,17,13,18,15.70
2018,10,17,13,19,15.80
2018,10,17,13,20,15.80
2018,10,17,13,21,15.80
2018,10,17,13,22,15.80
2018,10,17,13,23,15.90
2018,10,17,13,24,15.90
2018,10,17,13,25,15.90
2018,10,17,13,26,15.90
2018,10,17,13,27,15.90
2018,10,17,13,28,16.00
2018,10,17,13,29,16.00
2018,10,17,13,30,16.00
2018,10,17,13,31,16.00
2018,10,17,13,32,16.10
2018,10,17,13,33,16.10
2018,10,17,13,34,16.10
2018,10,17,13,35,16.10
2018,10,17,13,36,16.20
2018,10,17,13,37,16.20
2018,10,17,13,38,16.30
2018,10,17,13,39,16.30
2018,10,17,13,40,16.40
2018,10,17,13,41,16.50
2018,10,17,13,42,16.60
2018,10,17,13,43,16.80
2018,10,17,13,44,16.90
2018,10,17,13,45,17.00
2018,10,17,13,46,17.10
2018,10,17,13,47,17.20
2018,10,17,13,48,17.30
2018,10,17,13,49,17.40
2018,10,17,13,50,17.50
2018,10,17,13,51,17.60
2018,10,17,13,52,17.60
2018,10,17,13,53,17.60
2018,10,17,13,54,17.60
2018,10,17,13,55,17.50
2018,10,17,13,56,17.40
2018,10,17,13,57,17.30
2018,10,17,13,58,17.20
2018,10,17,13,59,17.10
2018,10,17,14,00,17.00
2018,10,17,14,01,16.90
2018,10,17,14,02,16.80
2018,10,17,14,03,16.80
2018,10,17,14,04,16.80
2018,10,17,14,05,16.70
2018,10,17,14,06,16.70
2018,10,17,14,07,16.70
2018,10,17,14,08,16.70
2018,10,17,14,09,16.70
2018,10,17,14,10,16.70
2018,10,17,14,11,16.70
2018,10,17,14,12,16.70
2018,10,17,14,13,16.70
2018,10,17,14,14,16.70
2018,10,17,14,15,16.70
2018,10,17,14,16,16.70
2018,10,17,14,17,16.70
2018,10,17,14,18,16.70
2018,10,17,14,19,16.70
2018,10,17,14,20,16.70
2018,10,17,14,21,16.80
2018,10,17,14,22,16.80
2018,10,17,14,23,16.80
2018,10,17,14,24,16.80
2018,10,17,14,25,16.90
2018,10,17,14,26,16.90
2018,10,17,14,27,17.00
2018,10,17,14,28,17.10
2018,10,17,14,29,17.20
2018,10,17,14,30,17.30
2018,10,17,14,31,17.30
2018,10,17,14,32,17.40
2018,10,17,14,33,17.50
2018,10,17,14,34,17.60
2018,10,17,14,35,17.60
2018,10,17,14,36,17.70
2018,10,17,14,37,17.70
2018,10,17,14,38,17.70
2018,10,17,14,39,17.70
2018,10,17,14,40,17.70
2018,10,17,14,41,17.70
2018,10,17,14,42,17.70
2018,10,17,14,43,17.70
2018,10,17,14,44,17.70
2018,10,17,14,45,17.70
2018,10,17,14,46,17.70
2018,10,17,14,47,17.60
2018,10,17,14,48,17.60
2018,10,17,14,49,17.50
2018,10,17,14,50,17.40
2018,10,17,14,51,17.30
2018,10,17,14,52,17.30
2018,10,17,14,53,17.20
2018,10,17,14,54,17.20
2018,10,17,14,55,17.20
2018,10,17,14,56,17.10
2018,10,17,14,57,17.10
2018,10,17,14,58,17.10
2018,10,17,14,59,17.10
2018,10,17,15,00,17.10
2018,10,17,15,01,17.10
2018,10,17,15,02,17.10
2018,10,17,15,03,17.10
2018,10,17,15,04,17.10
2018,10,17,15,05,17.10
2018,10,17,15,06,17.10
2018,10,17,15,07,17.10
2018,10,17,15,08,17.10
2018,10,17,15,09,17.10
2018,10,17,15,10,17.10
2018,10,17,15,11,17.10
2018,10,17,15,12,17.10
2018,10,17,15,13,17.10
2018,10,17,15,14,17.10
2018,10,17,15,15,17.10
2018,10,17,15,16,17.10
2018,10,17,15,17,17.10
2018,10,17,15,18,17.10
2018,10,17,15,19,17.10
2018,10,17,15,20,17.10
2018,10,17,15,21,17.20
2018,10,17,15,22,17.20
2018,10,17,15,23,17.20
2018,10,17,15,24,17.20
2018,10,17,15,25,17.20
2018,10,17,15,26,17.20
2018,10,17,15,27,17.20
2018,10,17,15,28,17.20
2018,10,17,15,29,17.20
2018,10,17,15,30,17.20
2018,10,17,15,31,17.20
2018,10,17,15,32,17.20
2018,10,17,15,33,17.30
2018,10,17,15,34,17.30
2018,10,17,15,35,17.30
2018,10,17,15,36,17.30
2018,10,17,15,37,17.30
2018,10,17,15,38,17.30
2018,10,17,15,39,17.30
2018,10,17,15,40,17.40
2018,10,17,15,41,17.40
2018,10,17,15,42,17.50
2018,10,17,15,43,17.50
2018,10,17,15,44,17.60
2018,10,17,15,45,17.70
2018,10,17,15,46,17.70
2018,10,17,15,47,17.70
2018,10,17,15,48,17.70
2018,10,17,15,49,17.70
2018,10,17,15,50,17.70
2018,10,17,15,51,17.70
2018,10,17,15,52,17.60
2018,10,17,15,53,17.60
2018,10,17,15,54,17.60
2018,10,17,15,55,17.60
2018,10,17,15,56,17.60
2018,10,17,15,57,17.60
2018,10,17,15,58,17.60
2018,10,17,15,59,17.70
2018,10,17,16,00,17.70
2018,10,17,16,01,17.80
2018,10,17,16,02,17.90
2018,10,17,16,03,18.00
2018,10,17,16,04,18.00
2018,10,17,16,05,18.10
2018,10,17,16,06,18.20
2018,10,17,16,07,18.30
2018,10,17,16,08,18.40
2018,10,17,16,09,18.50
2018,10,17,16,10,18.60
2018,10,17,16,11,18.60
2018,10,17,16,12,18.70
2018,10,17,16,13,18.80
2018,10,17,16,14,18.80
2018,10,17,16,15,18.90
2018,10,17,16,16,19.00
2018,10,17,16,17,19.00
2018,10,17,16,18,19.00
2018,10,17,16,19,19.10
2018,10,17,16,20,19.10
2018,10,17,16,21,19.10
2018,10,17,16,22,19.10
2018,10,17,16,23,19.20
2018,10,17,16,24,19.20
2018,10,17,16,25,19.20
2018,10,17,16,26,19.20
2018,10,17,16,27,19.10
2018,10,17,16,28,19.00
2018,10,17,16,29,19.00
2018,10,17,16,30,18.90
2018,10,17,16,31,18.80
2018,10,17,16,32,18.80
2018,10,17,16,33,18.80
2018,10,17,16,34,18.80
2018,10,17,16,35,18.80
2018,10,17,16,36,18.80
2018,10,17,16,37,18.70
2018,10,17,16,38,18.70
2018,10,17,16,39,18.70
2018,10,17,16,40,18.70
2018,10,17,16,41,18.60
2018,10,17,16,42,18.60
2018,10,17,16,43,18.50
2018,10,17,16,44,18.50
2018,10,17,16,45,18.40
2018,10,17,16,46,18.40
2018,10,17,16,47,18.40
2018,10,17,16,48,18.30
2018,10,17,16,49,18.30
2018,10,17,16,50,18.20
2018,10,17,16,51,18.20
2018,10,17,16,52,18.10
2018,10,17,16,53,18.10
2018,10,17,16,54,18.10
2018,10,17,16,55,18.10
2018,10,17,16,56,18.20
2018,10,17,16,57,18.20
2018,10,17,16,58,18.20
2018,10,17,16,59,18.30
2018,10,17,17,00,18.30
2018,10,17,17,01,18.30
2018,10,17,17,02,18.30
2018,10,17,17,03,18.20
2018,10,17,17,04,18.20
2018,10,17,17,05,18.20
2018,10,17,17,06,18.10
2018,10,17,17,07,18.10
2018,10,17,17,08,18.10
2018,10,17,17,09,18.10
2018,10,17,17,10,18.10
2018,10,17,17,11,18.10
2018,10,17,17,12,18.00
2018,10,17,17,13,18.00
2018,10,17,17,14,17.90
2018,10,17,17,15,17.90
2018,10,17,17,16,17.90
2018,10,17,17,17,17.90
2018,10,17,17,18,17.80
2018,10,17,17,19,17.80
2018,10,17,17,20,17.80
2018,10,17,17,21,17.80
2018,10,17,17,22,17.80
2018,10,17,17,23,17.80
2018,10,17,17,24,17.80
2018,10,17,17,25,17.70
2018,10,17,17,26,17.70
2018,10,17,17,27,17.60
2018,10,17,17,28,17.60
2018,10,17,17,29,17.50
2018,10,17,17,30,17.40
2018,10,17,17,31,17.40
2018,10,17,17,32,17.30
2018,10,17,17,33,17.20
2018,10,17,17,34,17.10
2018,10,17,17,35,17.10
2018,10,17,17,36,17.00
2018,10,17,17,37,16.90
2018,10,17,17,38,16.90
2018,10,17,17,39,16.80
2018,10,17,17,40,16.70
2018,10,17,17,41,16.70
2018,10,17,17,42,16.70
2018,10,17,17,43,16.60
2018,10,17,17,44,16.60
2018,10,17,17,45,16.50
2018,10,17,17,46,16.40
2018,10,17,17,47,16.40